This demonstration page uses our WeatherBlox Daily Observations layout. Learn more.

Left ArrowRight Arrow

Hourly Observations for February 16, 2016

Temp ( °F °C ) Dew Point ( °F °C ) Humidity (%) Winds ( mph kmh ) Pressure ( in mb ) Visibility ( mi km ) Precip ( " mm )
12:08 am 00:08 Cloudy 37 3 36 2 93 93 E 2 4 29.68 1005 10 16 0.00 0.00
12:13 am 00:13 Cloudy with Light Rain 37 3 34 1 87 87 Calm 29.68 1005 10 16 0.00 0.00
12:16 am 00:16 Cloudy 37 3 36 2 93 93 SW 2 4 29.68 1005 10 16 0.00 0.00
12:54 am 00:54 Cloudy with Light Rain 36 2 36 2 100 100 W 2 4 29.68 1005 10 16 0.00 0.00
12:58 am 00:58 Cloudy with Light Rain 37 2.5 36 2.1 97 97 WNW 5 7 29.66 1004 10 16 0.00 0.03
1:46 am 01:46 Cloudy 37 3 37 3 100 100 WNW 9 15 29.68 1005 10 16 0.00 0.00
1:52 am 01:52 Cloudy with Drizzle 37 3 37 3 100 100 NW 8 13 29.68 1005 10 16 0.00 0.00
1:58 am 01:58 Cloudy with Drizzle 37 2.9 37 2.8 99 99 WNW 5 7 29.65 1004 10 16 0.01 0.25
2:12 am 02:12 Cloudy 37 3 37 3 100 100 VRB 2 4 29.68 1005 10 16 0.00 0.00
2:58 am 02:58 Cloudy 37 2.6 37 2.5 99 99 WNW 9 15 29.65 1004 10 16 0.00 0.03
3:04 am 03:04 Cloudy 37 3 37 3 100 100 WNW 8 13 29.71 1006 10 16 0.00 0.00
3:14 am 03:14 Cloudy with Light Rain 37 3 37 3 100 100 NW 13 20 29.71 1006 10 16 0.00 0.00
3:25 am 03:25 Cloudy with Light Rain 39 4 37 3 93 93 NNW 12 19 29.71 1006 10 16 0.00 0.00
3:26 am 03:26 Cloudy with Light Rain 39 4 37 3 93 93 NW 12 19 29.71 1006 10 16 0.00 0.00
3:46 am 03:46 Cloudy 39 4 39 4 100 100 NW 10 17 29.71 1006 10 16 0.00 0.00
3:52 am 03:52 Cloudy 39 4 39 4 100 100 NW 9 15 29.71 1006 10 16 0.00 0.00
3:58 am 03:58 Cloudy 39 3.8 38 3.5 98 98 NNW 9 15 29.68 1005 10 16 0.00 0.03
4:15 am 04:15 Cloudy 39 4 37 3 93 93 NW 8 13 29.74 1007 10 16 0.00 0.00
4:18 am 04:18 Cloudy 37 3 37 3 100 100 NW 8 13 29.74 1007 8 13 0.00 0.00
4:20 am 04:20 Cloudy with Mist and Fog 37 3 37 3 100 100 NW 9 15 29.74 1007 5 8 0.00 0.00
4:48 am 04:48 Cloudy with Drizzle 37 3 37 3 100 100 NW 7 11 29.74 1007 4 6 0.00 0.00
4:55 am 04:55 Cloudy with Mist and Fog 37 3 37 3 100 100 NW 10 17 29.77 1008 5 8 0.00 0.00
4:58 am 04:58 Cloudy with Mist and Fog 38 3.2 38 3.1 99 99 NW 14 22 29.72 1007 5 8 0.00 0.03
5:03 am 05:03 Cloudy with Drizzle 37 3 37 3 100 100 NW 18 30 29.77 1008 6 10 0.00 0.00
5:13 am 05:13 Cloudy 39 4 37 3 93 93 NNW 14 22 29.77 1008 7 11 0.00 0.00
5:18 am 05:18 Cloudy 39 4 37 3 93 93 NNW 13 20 29.77 1008 9 14 0.00 0.00
5:20 am 05:20 Cloudy with Drizzle 39 4 37 3 93 93 NNW 14 22 29.77 1008 10 16 0.00 0.00
5:29 am 05:29 Cloudy 39 4 37 3 93 93 NNW 13 20 29.77 1008 10 16 0.00 0.00
5:30 am 05:30 Cloudy 39 4 37 3 93 93 NW 14 22 29.77 1008 10 16 0.00 0.00
5:38 am 05:38 Cloudy 39 4 37 3 93 93 NNW 15 24 29.77 1008 10 16 0.00 0.00
5:58 am 05:58 Cloudy 38 3.5 38 3.4 99 99 NNW 16 26 29.78 1008 10 16 0.00 0.03
6:06 am 06:06 Cloudy 39 4 37 3 93 93 NNW 10 17 29.80 1009 10 16 0.00 0.00
6:15 am 06:15 Cloudy 39 4 37 3 93 93 NNW 18 30 29.80 1009 10 16 0.00 0.00
6:21 am 06:21 Cloudy 39 4 37 3 93 93 NNW 20 31 29.80 1009 10 16 0.00 0.00
6:27 am 06:27 Cloudy 39 4 36 2 87 87 NNW 14 22 29.80 1009 10 16 0.00 0.00
6:58 am 06:58 Cloudy 38 3.3 36 2 91 91 NNW 21 33 29.83 1010 10 16 0.00 0.00
7:24 am 07:24 Cloudy 37 3 36 2 93 93 NNW 22 35 29.85 1011 10 16 0.00 0.00
7:58 am 07:58 Cloudy 37 2.8 35 1.8 93 93 NNW 15 24 29.89 1012 10 16 0.00 0.00
8:02 am 08:02 Cloudy 37 3 36 2 93 93 NNW 21 33 29.91 1013 10 16 0.00 0.00
8:46 am 08:46 Cloudy 37 3 34 1 87 87 N 15 24 29.91 1013 10 16 0.00 0.00
8:54 am 08:54 Cloudy 37 3 34 1 87 87 NNW 15 24 29.94 1014 10 16 0.00 0.00
8:58 am 08:58 Cloudy 37 2.8 35 1.5 91 91 NNW 17 28 29.93 1014 10 16 0.00 0.00
9:58 am 09:58 Cloudy 37 3 34 1.1 87 87 NNW 16 26 29.98 1015 10 16 0.00 0.00
10:58 am 10:58 Cloudy 38 3.2 34 1.2 87 87 NW 13 20 30.00 1016 10 16 0.00 0.00
11:53 am 11:53 Cloudy 39 4 34 1 81 81 NW 15 24 30.00 1016 10 16 0.00 0.00
11:58 am 11:58 Cloudy 39 3.8 34 0.9 82 82 NW 13 20 30.01 1016 10 16 0.00 0.00
12:55 pm 12:55 Cloudy 37 3 32 0 81 81 NW 17 28 30.03 1017 10 16 0.00 0.00
12:58 pm 12:58 Cloudy 37 2.7 33 0.3 84 84 NW 15 24 30.03 1017 10 16 0.00 0.00
1:58 pm 13:58 Cloudy 37 2.5 32 0 84 84 NW 12 19 30.04 1017 10 16 0.00 0.00
2:29 pm 14:29 Cloudy 37 3 32 0 81 81 NNW 10 17 30.03 1017 10 16 0.00 0.00
2:58 pm 14:58 Cloudy 37 2.7 31 -0.8 78 78 NW 14 22 30.05 1018 10 16 0.00 0.00
3:58 pm 15:58 Cloudy 37 2.9 31 -0.4 79 79 NW 8 13 30.05 1018 10 16 0.00 0.00
4:24 pm 16:24 Cloudy 37 3 32 0 81 81 NW 6 9 30.06 1018 10 16 0.00 0.00
4:26 pm 16:26 Cloudy 37 3 32 0 81 81 NW 6 9 30.06 1018 10 16 0.00 0.00
4:58 pm 16:58 Cloudy 38 3.4 31 -0.5 76 76 NNW 5 7 30.06 1018 10 16 0.00 0.00
5:58 pm 17:58 Mostly Cloudy 35 1.6 31 -0.5 86 86 NE 5 7 30.06 1018 10 16 0.00 0.00
6:10 pm 18:10 Cloudy 34 1 32 0 93 93 NE 3 6 30.09 1019 10 16 0.00 0.00
6:58 pm 18:58 Mostly Clear 32 0.2 30 -1 92 92 N 2 4 30.08 1019 10 16 0.00 0.00
7:58 pm 19:58 Clear 29 -1.8 28 -2 99 99 NNW 3 6 30.10 1019 10 16 0.00 0.00
8:58 pm 20:58 Partly Cloudy 28 -2.2 28 -2.3 99 99 ESE 2 4 30.10 1019 10 16 0.00 0.00
9:58 pm 21:58 Mostly Cloudy with Mist and Fog 27 -2.8 27 -3 99 99 NE 1 2 30.10 1019 6 10 0.00 0.00
10:45 pm 22:45 Mostly Cloudy with Mist and Fog 25 -4 25 -4 100 100 Calm 30.12 1020 3 4 0.00 0.00
10:47 pm 22:47 Mostly Cloudy with Mist and Fog 27 -3 25 -4 93 93 Calm 30.12 1020 2 3 0.00 0.00
10:53 pm 22:53 Mostly Cloudy with Mist and Fog 28 -2 28 -2 100 100 S 2 4 30.12 1020 2 3 0.00 0.00
10:56 pm 22:56 Mostly Cloudy with Mist and Fog 28 -2 28 -2 100 100 SSE 3 6 30.12 1020 4 6 0.00 0.00
10:58 pm 22:58 Mostly Cloudy with Mist and Fog 28 -2 28 -2 100 100 SSE 3 6 30.10 1019 5 8 0.00 0.00
11:58 pm 23:58 Cloudy 29 -1.8 29 -1.9 99 99 E 3 6 30.10 1019 7 11 0.00 0.00

Powered by AerisWeather